Regional Weather Roundup
Issued by NWS

Home | Current Version | Previous Version | Graphics & Text | Print | Product List | Glossary On
Versions: 1 2 3 4 5 6 7 8 9 10 11 12 13 14 15 16 17 18 19 20 21 22 23 24 25 26 27 28 29 30 31 32 33 34 35 36 37 38 39 40 41 42 43 44 45 46 47 48 49 50
000
ASUS43 KLMK 232310
RWRKY
KENTUCKY REGIONAL WEATHER ROUNDUP
NATIONAL WEATHER SERVICE LOUISVILLE KY
700 PM EDT MON OCT 23 2017

NOTE "FAIR" INDICATES FEW OR NO CLOUDS BELOW 12,000 FEET
WITH NO SIGNIFICANT WEATHER AND/OR OBSTRUCTIONS TO VISIBILITY.

KYZ001>023-026-027-061>063-070>075-240000-
WESTERN AND SOUTH CENTRAL KENTUCKY

CITY           SKY/WX    TMP DP  RH WIND       PRES   REMARKS
PADUCAH        PTCLDY    62  44  51 S3        29.83F
HENDERSON      PTCLDY    55  47  74 W3        29.82S
OWENSBORO      MOCLDY    54  49  83 W10       29.82R
HOPKINSVILLE   CLEAR     56  49  75 SW8       29.85S
BOWLING GREEN  CLOUDY    56  48  74 W9        29.84S
GLASGOW        CLOUDY    52  50  95 W7        29.83S
$$

KYZ024-025-028>034-038-045-046-053-240000-
NORTH CENTRAL KENTUCKY

CITY           SKY/WX    TMP DP  RH WIND       PRES   REMARKS
LOUISVILLE/SDF DRIZZLE   55  53  93 SW13      29.73S FOG
LOUISVILLE/LOU LGT RAIN  55  54  96 SW14      29.73F FOG
FORT KNOX      LGT RAIN  52  52 100 SW15      29.75R FOG
$$

KYZ035>037-039>044-047>052-055>060-089>105-240000-
NORTHEAST KENTUCKY

CITY           SKY/WX    TMP DP  RH WIND       PRES   REMARKS
LEXINGTON      CLOUDY    55  51  86 SW15G25   29.73R
COVINGTON      CLOUDY    56  55  97 SW12G22   29.66R
FRANKFORT      CLOUDY    56  50  80 SW12      29.72S
$$

KYZ054-064>069-076>088-106>120-240000-
SOUTHEAST KENTUCKY

CITY           SKY/WX    TMP DP  RH WIND       PRES   REMARKS
JACKSON        LGT RAIN  56  54  93 MISG      29.75R
LONDON         CLOUDY    57  53  86 SW14G24   29.79R
SOMERSET       CLOUDY    54  54 100 W20       29.81R
MIDDLESBORO    CLOUDY    59  53  80 S3        29.81R
MONTICELLO     LGT RAIN  55  53  93 W22G28    29.83S FOG
$$




USA.gov is the U.S. government's official web portal to all federal, state and local government web resources and services.